Snowfall_Accumulation
0.2 1.1 0.5 0.0 0.0 0.0 0.0 0.0 0.0 0.1 0.0 0.0 0.0 0.0 0.0 0.1 0.0 0.0 0.0 0.0 0.0 0.0 0.0 0.0 0.0 0.0 0.0
0.8 0.6 0.3 0.0 0.0 0.0 0.0 0.2 0.1 0.0 0.0 0.0 0.0 0.0 0.0 0.0 0.0 0.3 0.1 0.0 0.0 0.0 0.0 0.0 0.0 0.0 0.0
0.5 0.0 0.2 1.0 0.1 0.0 0.0 0.0 0.0 0.0 0.0 0.0 0.0 0.0 0.0 0.1 0.2 0.3 0.5 0.6 0.4 0.0 0.0 0.0 0.0 0.0 0.0
0.9 0.8 0.5 0.1 0.3 0.0 0.0 0.0 0.0 0.0 0.0 0.0 0.0 0.0 0.0 0.0 0.0 0.0 0.0 0.0 0.0 0.0 0.1 0.0 0.1 0.0 0.0
2.8 2.6 0.2 0.0 0.0 0.0 0.0 0.0 0.3 0.0 0.0 0.0 0.0 0.0 0.0 0.0 0.0 0.0 0.0 0.0 0.1 0.4 0.2 0.5 0.8 0.1 0.0
3.8 0.9 0.0 0.1 0.1 0.4 2.6 2.4 1.7 0.0 0.0 0.2 0.0 0.0 0.0 0.0 0.0 0.1 0.2 0.1 0.0 0.2 0.5 0.7 0.5 0.4 0.0
1.2 0.7 0.8 0.3 3.5 4.3 2.8 3.2 2.0 0.0 0.4 0.5 0.1 0.0 0.0 0.0 0.0 0.0 0.0 0.1 0.2 0.4 0.6 0.8 0.6 0.5 0.2
0.3 0.8 1.8 1.8 2.0 1.7 1.9 1.4 1.1 0.1 0.2 3.2 0.1 0.1 0.0 0.0 0.0 0.0 0.0 0.1 0.5 1.1 0.6 0.4 0.5 0.6 0.4
0.8 0.6 0.1 0.0 0.0 1.9 4.7 6.2 3.6 0.2 0.0 1.6 0.6 0.3 0.1 0.0 0.0 0.0 0.0 0.8 0.3 0.3 0.6 0.7 0.8 0.7 0.8
0.1 0.0 0.0 0.0 0.1 0.5 5.7 12.6 6.8 3.4 0.0 4.5 1.4 1.9 4.8 0.0 0.1 0.0 0.0 0.0 0.0 0.3 0.3 0.8 1.0 1.4 1.6
0.2 0.1 0.0 0.0 0.3 0.2 2.0 9.8 13.9 8.5 0.0 10.1 10.0 3.1 7.9 3.8 2.1 2.5 1.9 1.8 2.0 2.5 4.0 2.7 2.8 2.9 4.9
1.0 0.6 0.2 0.3 0.2 0.3 0.5 1.8 3.9 8.1 3.2 4.6 16.5 6.7 10.7 8.2 4.8 4.9 4.3 6.6 8.3 8.2 10.2 4.2 2.6 2.3 2.8
1.4 0.7 0.2 0.1 0.4 0.5 0.8 1.3 1.7 2.5 3.3 3.8 8.4 8.5 11.6 11.2 6.8 4.4 6.6 7.1 8.3 9.4 8.3 8.6 6.8 4.7 3.2
2.5 0.7 0.1 0.4 0.8 1.2 3.9 3.1 4.7 2.6 3.6 4.2 5.7 8.1 9.7 6.6 7.9 6.4 7.2 10.2 8.9 9.1 8.2 10.5 3.8 2.6 1.4
2.1 1.9 0.8 0.8 2.9 3.0 5.0 8.7 12.1 6.6 6.9 6.0 5.2 3.2 4.3 6.5 7.9 6.2 6.9 7.3 10.5 10.3 8.5 11.3 7.8 2.1 0.7
3.0 2.1 5.4 5.1 7.1 7.6 9.8 12.1 12.4 8.7 9.0 7.8 7.4 8.3 7.5 7.0 7.3 10.3 9.3 10.1 11.9 10.0 8.9 9.5 10.0 7.1 0.1
4.6 5.5 8.3 7.4 8.7 8.4 9.4 10.6 10.5 7.4 6.6 5.0 7.6 11.6 13.6 6.8 5.6 8.0 15.1 13.0 10.6 9.9 7.3 7.1 9.7 10.1 1.0